Temperature
11 11 11 11 11 11 11 11 11 11 10 10 10 10 10 10 10 10 10 10 10 10 10 10 9 9 9 9 9 8 8 8 7 7 7 7 6 6 6 6 6 6 6
12 11 11 11 11 11 11 11 10 10 10 10 10 10 10 10 10 10 10 10 10 10 10 10 9 9 9 9 8 9 8 8 8 7 7 6 6 6 6 6 6 5 6
12 11 11 11 11 11 11 10 10 10 10 10 10 10 10 10 10 10 10 10 10 10 10 10 10 9 9 9 8 8 8 8 7 7 7 6 6 6 6 6 5 5 5
12 11 11 11 11 11 11 11 10 10 10 10 10 10 10 10 10 10 10 10 10 10 10 10 9 9 9 9 8 8 8 7 7 7 6 6 6 5 5 5 5 5 5
12 11 11 11 11 11 11 11 10 10 10 10 10 10 10 10 10 10 10 10 10 10 10 9 9 9 9 9 8 8 8 7 7 6 6 6 5 5 5 5 5 5 5
12 12 11 11 11 11 11 11 10 10 10 10 10 10 10 10 10 10 10 10 10 10 9 9 9 9 9 8 8 8 7 7 6 6 6 5 5 5 4 4 4 4 4
12 12 12 11 11 11 11 11 10 10 10 10 10 10 10 10 10 10 10 10 9 9 9 9 9 9 8 8 8 8 7 7 6 6 5 5 5 4 4 4 4 4 4
12 12 12 12 11 11 11 11 10 10 10 10 10 9 9 9 10 10 10 9 9 9 9 9 8 8 8 8 7 7 7 7 6 5 5 4 4 4 4 4 3 3 3
12 12 12 12 11 11 11 11 11 10 10 10 10 9 9 9 9 9 10 9 9 9 9 8 8 8 8 7 7 7 6 6 6 5 4 4 4 3 3 3 3 3 3
12 12 12 12 11 11 11 11 11 10 10 10 9 9 9 9 9 9 9 9 9 9 8 8 8 8 7 7 7 6 6 6 5 5 4 4 3 3 3 3 2 2 2
12 12 12 12 11 11 11 11 10 10 10 10 9 9 9 9 9 8 8 8 8 8 8 8 7 7 7 6 6 6 5 5 5 4 4 3 3 2 2 2 2 2 2
12 12 12 12 11 11 11 11 10 10 10 10 9 9 9 9 8 8 8 8 8 8 8 7 7 7 6 6 6 5 5 5 4 4 3 3 2 2 2 1 1 1 1
13 13 12 12 11 11 11 11 10 10 10 9 9 9 9 8 8 8 8 8 7 7 7 7 7 6 6 5 5 5 4 4 4 3 2 2 2 1 1 1 1 0 0
14 13 13 12 12 11 11 10 10 10 10 9 9 9 9 8 8 8 8 7 7 7 7 6 6 6 5 5 5 4 4 3 3 2 2 1 1 1 0 0 -0 -0 -0
14 13 13 12 11 11 10 10 10 10 10 9 9 9 8 8 8 8 7 7 6 5 6 6 5 5 5 4 4 3 3 3 2 2 1 1 0 0 -0 -1 -1 -1 -1
13 13 12 12 11 11 10 10 10 10 9 9 9 9 8 8 8 7 7 7 6 5 5 5 5 4 4 4 3 3 2 2 2 1 1 0 -0 -1 -1 -1 -1 -1 -1
13 13 12 12 11 11 10 10 10 10 9 9 9 8 8 8 8 7 7 6 6 5 5 5 4 4 3 3 3 2 2 1 1 1 0 -0 -1 -1 -1 -2 -2 -2 -2
13 12 12 12 11 11 10 10 10 10 9 9 9 8 8 8 7 7 6 6 5 5 4 4 4 3 3 2 2 1 1 1 0 -0 -0 -1 -1 -2 -2 -2 -2 -2 -2
13 12 12 11 11 11 10 10 10 9 9 9 8 8 8 7 7 6 6 5 5 4 4 3 3 3 2 2 1 1 1 0 -0 -0 -1 -1 -1 -2 -2 -2 -2 -3 -3
12 12 12 11 11 11 10 10 9 9 9 8 8 8 7 7 6 6 5 5 4 4 3 3 2 2 1 1 0 0 0 -0 -0 -1 -1 -2 -2 -2 -2 -3 -3 -3 -3
12 12 11 11 11 10 10 10 9 9 9 8 8 7 7 6 6 5 5 4 4 3 3 2 2 1 1 0 -0 -1 -1 -1 -1 -1 -2 -2 -2 -3 -3 -3 -3 -4 -4
12 11 11 11 11 10 10 10 9 9 8 8 7 7 7 6 5 5 4 4 3 3 2 2 1 0 -0 -1 -1 -2 -2 -2 -2 -2 -3 -2 -3 -3 -3 -4 -4 -5 -5
12 11 11 11 10 10 10 9 9 8 8 7 7 7 6 6 5 4 4 3 3 2 2 1 1 -0 -1 -2 -2 -2 -2 -3 -3 -3 -4 -3 -3 -3 -4 -4 -5 -5 -5
11 11 11 10 10 10 9 9 8 8 8 7 7 6 6 5 4 4 3 3 3 2 1 1 0 -1 -1 -2 -2 -3 -3 -3 -3 -4 -4 -4 -4 -4 -4 -4 -5 -5 -6
11 11 10 10 10 10 9 9 8 8 7 7 6 6 5 5 4 3 3 2 2 2 1 0 -0 -1 -2 -2 -3 -3 -3 -4 -4 -4 -5 -6 -5 -5 -5 -5 -5 -6 -6
11 10 10 10 9 9 9 8 8 7 7 6 6 5 5 4 4 3 2 2 1 1 0 -0 -1 -1 -2 -2 -3 -4 -4 -5 -5 -6 -6 -6 -6 -7 -7 -6 -6 -6 -6
Wind_Speed
7 8 8 8 8 8 6 5 4 3 3 3 3 5 4 5 6 5 3 3 2 2 2 2 2 3 4 4 5 5 6 7 8 8 9 9 10 10 11 11 11 12 12
11 8 7 7 8 9 8 7 5 3 2 3 3 4 5 5 5 5 4 3 2 2 1 0 1 2 3 3 4 5 6 7 8 9 9 10 10 10 11 11 11 12 13
14 11 7 6 8 10 9 6 4 3 2 2 2 2 3 4 5 5 5 4 3 3 2 1 1 2 3 3 4 5 6 7 8 9 9 10 11 11 12 12 12 13 13
17 12 7 7 10 10 7 4 3 3 2 2 2 1 2 3 4 5 5 5 5 4 4 3 3 3 3 4 4 5 6 7 8 9 10 10 11 12 12 13 13 14 14
18 13 8 8 11 7 5 4 3 3 3 2 2 2 2 2 3 4 4 6 6 6 5 4 4 4 4 4 6 6 6 7 8 9 10 11 12 13 13 14 14 14 15
17 14 9 9 10 6 5 4 4 3 3 3 2 1 2 2 2 3 4 5 6 6 6 5 4 4 4 5 6 7 7 8 9 10 11 12 13 13 14 14 15 15 16
16 13 8 8 8 7 7 6 4 4 2 2 2 1 3 2 3 3 3 3 4 6 6 6 5 5 5 6 6 7 8 9 10 11 12 13 13 14 15 16 16 17 17
16 13 10 9 8 6 7 7 5 4 3 3 3 2 2 4 3 3 2 3 3 4 4 6 6 6 6 5 6 7 8 10 11 12 13 14 15 16 16 16 17 18 18
15 13 12 10 9 8 8 8 7 7 5 3 3 4 3 4 3 3 2 3 3 2 3 4 6 6 6 6 6 7 9 11 12 13 14 15 16 17 17 17 18 19 19
14 14 13 12 10 8 8 8 8 5 6 4 3 2 3 3 2 2 3 2 3 3 4 3 4 5 5 5 6 8 9 11 13 14 15 16 17 18 18 18 19 19 20
12 13 13 11 10 9 9 9 8 7 6 5 4 3 2 1 2 2 3 3 3 3 3 3 3 3 4 5 6 8 9 11 13 15 16 16 17 18 19 19 20 20 21
9 12 12 11 10 9 9 9 8 9 7 6 5 4 4 3 3 3 4 4 4 3 2 2 1 2 3 5 6 8 10 12 14 15 15 16 17 18 19 20 20 21 21
10 13 11 11 10 9 9 8 8 8 8 7 7 5 4 4 3 4 3 3 3 3 2 1 2 2 3 4 6 8 10 12 13 14 15 16 17 18 19 20 20 21 21
11 11 12 11 10 10 9 9 7 8 7 8 7 6 4 4 3 4 4 3 2 3 2 4 2 1 3 4 6 7 9 12 13 14 15 16 17 18 19 19 20 20 21
9 11 12 11 10 10 10 9 7 8 7 7 7 7 5 4 4 3 3 4 4 3 4 3 2 2 3 4 7 7 8 11 13 14 15 16 17 17 18 19 19 20 20
10 12 12 12 11 10 10 9 7 7 8 7 6 7 6 4 4 3 3 3 4 4 4 3 3 3 3 4 7 7 9 11 12 15 16 16 16 17 18 18 18 19 20
12 13 13 12 11 11 10 10 9 9 9 7 6 7 7 5 4 3 3 3 3 3 5 4 3 2 2 4 6 7 9 9 11 14 15 15 16 16 17 17 18 19 19
12 12 12 12 12 11 11 11 11 10 10 9 8 7 7 5 5 4 4 4 4 4 4 5 3 2 3 3 4 5 7 9 10 13 15 15 16 16 17 17 18 18 18
12 12 12 12 12 12 11 11 11 10 10 9 9 8 7 7 6 4 4 4 3 3 3 3 4 2 3 3 3 4 6 6 9 11 13 14 15 16 17 17 17 17 18
13 12 12 12 12 11 11 11 10 9 9 8 7 7 7 8 7 6 5 5 4 3 3 3 3 3 3 3 2 4 5 4 6 7 10 12 14 16 16 17 17 17 17
12 12 11 11 10 10 10 11 10 10 9 7 6 6 6 7 8 7 5 5 4 3 2 2 3 3 3 3 3 3 5 5 5 3 5 7 8 8 11 14 15 16 17
11 11 12 12 11 9 13 15 12 9 9 8 7 6 5 6 7 7 6 5 5 4 3 3 3 4 5 4 3 3 4 5 5 3 4 6 4 5 7 9 14 16 16
10 10 11 11 11 11 15 16 15 10 9 8 8 7 5 5 6 4 4 3 3 4 4 3 4 5 4 4 3 3 3 4 5 4 3 5 3 5 7 11 15 15 15
10 9 10 10 9 10 15 16 15 10 8 7 7 7 7 5 5 5 4 2 2 2 3 2 3 4 3 3 2 3 4 4 4 4 2 4 4 5 7 9 13 14 16
9 8 9 10 10 10 15 16 15 8 7 6 6 6 7 6 7 7 5 3 2 1 1 1 1 3 4 4 3 1 2 3 4 4 1 2 3 6 5 5 9 13 16
9 9 8 8 10 10 15 17 15 8 7 6 5 5 7 7 7 7 5 4 3 2 0 1 2 3 4 4 4 2 1 2 3 3 2 2 3 4 5 4 4 9 11
Wind_Direction
172 174 177 177 180 178 173 170 169 161 160 162 154 145 139 143 150 151 151 146 135 124 100 76 52 41 35 35 27 17 10 5 1 358 355 352 351 348 346 344 342 340 338
174 175 176 179 183 182 178 176 174 165 161 153 146 151 151 149 157 166 171 175 176 169 158 88 28 11 6 6 5 2 357 355 352 350 347 345 343 340 338 337 336 335 333
177 176 174 178 185 183 174 167 162 151 141 140 144 153 159 168 168 176 183 188 199 208 212 236 289 314 325 336 343 348 345 344 343 342 340 339 337 335 333 331 330 329 328
178 174 175 182 183 175 167 157 156 146 155 158 166 179 166 174 182 190 194 198 204 212 224 239 259 281 297 314 323 329 331 334 336 336 334 333 332 330 328 326 324 323 321
181 177 178 180 176 169 167 171 164 160 169 179 192 203 206 205 205 194 195 205 211 214 221 237 253 272 286 300 309 316 318 322 326 327 328 326 325 324 323 321 321 319 317
183 179 177 178 173 168 174 172 167 163 168 173 179 221 261 246 230 212 212 212 214 215 217 225 239 258 274 286 299 309 310 312 315 318 321 321 321 320 320 319 319 318 316
184 180 178 176 175 180 182 174 162 165 172 146 106 347 322 295 258 243 227 219 225 223 221 225 230 242 261 277 289 301 306 308 310 312 315 316 317 317 315 315 316 315 314
186 186 180 182 180 178 177 179 165 161 174 161 146 135 308 318 293 255 240 229 237 234 232 234 232 237 248 259 275 292 301 305 306 309 311 312 312 312 311 312 313 313 313
189 187 185 182 182 180 187 188 179 171 181 194 173 158 175 234 286 302 262 242 241 239 243 239 237 241 247 252 263 280 291 298 302 305 307 309 309 309 309 310 310 310 310
190 189 186 185 185 187 188 190 186 178 167 186 204 205 184 165 179 288 305 286 266 250 249 246 243 246 252 256 266 281 291 297 300 302 304 306 307 307 308 308 308 308 307
192 189 186 185 188 191 191 187 183 183 181 179 180 176 179 169 165 183 265 297 305 270 250 236 232 244 254 261 269 282 292 296 299 301 303 304 306 307 307 307 307 307 307
195 193 188 188 190 191 191 190 187 186 190 185 184 178 169 173 191 187 222 249 266 281 272 235 214 236 258 268 275 287 290 294 297 301 303 304 305 306 306 307 307 307 307
198 198 192 192 192 192 189 184 185 190 189 190 192 195 192 194 172 172 191 229 251 279 297 279 233 240 277 279 285 291 293 297 298 302 304 303 304 305 306 306 306 307 308
200 191 191 192 191 188 187 185 189 192 189 194 195 191 190 201 186 177 176 178 242 286 285 273 292 303 304 290 292 297 299 300 301 302 302 302 303 304 304 305 306 307 308
188 184 187 189 189 187 186 184 193 192 187 193 193 190 193 197 191 191 178 172 183 243 267 265 276 312 318 304 304 306 299 301 303 302 301 301 302 304 305 306 306 307 307
183 182 187 189 189 188 187 186 187 184 184 191 188 189 197 196 188 186 186 183 186 201 241 249 242 278 314 310 306 303 296 301 301 302 302 302 304 305 306 308 308 308 308
183 184 186 188 190 191 188 188 190 183 187 190 188 191 200 188 187 188 178 179 188 189 235 264 245 274 282 285 310 306 302 301 302 303 304 306 308 308 310 310 310 310 310
186 185 183 186 190 190 188 189 190 187 189 192 192 189 198 184 190 186 183 191 199 200 215 258 271 272 270 283 297 302 308 305 302 303 307 309 309 311 313 313 311 312 312
183 183 182 187 190 188 188 189 188 188 191 193 189 190 192 183 195 194 191 198 202 204 209 237 268 269 279 300 305 300 300 299 305 305 309 311 310 312 313 314 313 313 313
181 183 185 187 187 185 186 185 183 184 186 188 187 188 187 188 195 194 197 203 198 204 215 239 264 279 281 296 299 296 307 306 306 305 309 311 311 315 316 316 315 317 318
181 179 179 181 181 182 184 180 180 179 179 180 180 184 186 185 189 190 192 196 190 202 215 238 261 282 284 299 292 283 298 306 300 287 309 307 307 307 312 314 315 318 320
175 174 179 179 180 186 180 176 174 175 175 176 177 178 179 183 189 194 202 196 184 191 209 221 247 265 271 274 278 294 298 316 305 293 302 298 295 296 305 305 311 318 321
170 173 177 178 182 182 174 173 171 169 171 176 175 173 174 179 178 178 192 194 208 219 218 216 235 250 264 263 272 285 282 284 277 287 301 285 287 294 303 307 313 318 323
170 172 173 175 174 176 170 168 165 164 164 170 173 175 174 173 174 167 163 173 207 233 240 231 223 245 258 262 248 265 272 288 281 283 275 274 287 298 305 301 305 319 325
167 168 167 167 169 170 168 164 158 157 160 165 165 167 167 171 173 165 161 176 202 260 306 291 299 320 324 327 343 5 341 331 310 296 273 281 292 306 295 282 296 316 323
160 156 158 164 166 167 167 164 158 156 159 160 155 161 167 168 169 168 170 177 202 234 209 359 352 350 351 347 350 348 265 298 306 292 286 299 287 318 307 285 291 304 311
Height
1529 1530 1532 1533 1534 1535 1536 1537 1538 1539 1540 1540 1541 1541 1541 1541 1542 1542 1541 1541 1541 1540 1540 1539 1538 1537 1536 1535 1533 1532 1530 1529 1527 1525 1523 1521 1520 1518 1516 1514 1512 1511 1509
1528 1529 1531 1532 1533 1535 1536 1537 1538 1538 1539 1540 1540 1541 1541 1541 1541 1541 1541 1540 1540 1540 1539 1538 1537 1536 1535 1534 1533 1531 1529 1528 1526 1524 1522 1520 1518 1516 1515 1513 1511 1509 1507
1526 1528 1529 1531 1532 1534 1535 1536 1537 1538 1538 1539 1539 1540 1540 1540 1540 1540 1540 1540 1539 1539 1538 1537 1536 1535 1534 1533 1532 1530 1528 1526 1525 1523 1521 1519 1517 1515 1513 1511 1509 1507 1505
1524 1526 1528 1529 1531 1532 1533 1534 1535 1536 1537 1538 1538 1538 1539 1539 1539 1539 1539 1538 1538 1538 1537 1536 1535 1534 1533 1532 1530 1529 1527 1525 1523 1521 1519 1517 1515 1512 1510 1508 1506 1504 1502
1522 1524 1526 1528 1529 1530 1532 1533 1534 1535 1535 1536 1537 1537 1537 1537 1537 1537 1537 1537 1537 1536 1535 1535 1534 1532 1531 1530 1529 1527 1525 1523 1521 1519 1517 1514 1512 1510 1508 1506 1503 1501 1499
1519 1521 1523 1525 1527 1528 1529 1531 1532 1533 1534 1535 1535 1535 1535 1535 1535 1535 1535 1535 1535 1534 1534 1533 1532 1531 1529 1528 1526 1525 1523 1521 1519 1517 1514 1512 1509 1507 1505 1503 1500 1498 1496
1516 1518 1520 1522 1524 1526 1527 1528 1530 1531 1532 1533 1533 1533 1533 1533 1533 1533 1533 1533 1532 1532 1531 1531 1530 1528 1527 1526 1524 1522 1520 1518 1516 1514 1512 1509 1506 1504 1502 1499 1497 1494 1492
1512 1515 1517 1519 1521 1523 1524 1526 1527 1528 1529 1530 1531 1531 1531 1531 1530 1530 1530 1530 1530 1529 1529 1528 1527 1526 1524 1523 1521 1519 1517 1515 1513 1511 1508 1506 1503 1501 1498 1496 1493 1490 1488
1508 1511 1513 1516 1517 1519 1521 1522 1523 1525 1526 1527 1528 1529 1528 1527 1527 1527 1527 1527 1527 1526 1526 1525 1524 1523 1521 1520 1518 1516 1514 1512 1509 1507 1504 1502 1499 1497 1494 1491 1489 1486 1483
1503 1506 1509 1511 1513 1515 1517 1518 1520 1521 1523 1523 1525 1525 1526 1525 1526 1524 1525 1524 1524 1523 1523 1522 1520 1519 1518 1516 1514 1512 1510 1507 1505 1502 1500 1497 1495 1492 1490 1487 1484 1481 1478
1499 1501 1504 1507 1509 1511 1513 1515 1516 1517 1519 1520 1521 1521 1522 1522 1522 1522 1521 1521 1521 1520 1519 1518 1517 1515 1514 1512 1510 1508 1506 1503 1501 1498 1495 1492 1490 1487 1484 1481 1478 1475 1473
1493 1496 1499 1501 1504 1506 1508 1510 1512 1513 1515 1516 1517 1518 1518 1518 1518 1518 1517 1517 1516 1516 1515 1514 1512 1511 1509 1508 1506 1503 1501 1499 1496 1493 1490 1487 1484 1481 1479 1476 1473 1470 1467
1486 1489 1493 1496 1498 1501 1503 1505 1507 1509 1510 1511 1513 1514 1514 1515 1515 1515 1515 1514 1513 1512 1511 1509 1508 1507 1505 1503 1501 1499 1496 1493 1490 1488 1485 1482 1479 1476 1473 1470 1467 1464 1461
1481 1484 1488 1491 1493 1496 1498 1500 1502 1504 1506 1507 1508 1509 1510 1511 1511 1511 1511 1511 1509 1507 1506 1505 1504 1502 1500 1498 1496 1493 1491 1488 1485 1482 1479 1476 1473 1470 1467 1464 1461 1458 1455
1476 1480 1483 1486 1488 1491 1493 1495 1497 1499 1501 1502 1504 1505 1506 1506 1507 1507 1507 1507 1506 1503 1501 1501 1500 1497 1495 1493 1491 1488 1485 1482 1479 1476 1473 1470 1467 1464 1461 1458 1455 1452 1449
1471 1474 1477 1480 1483 1486 1488 1490 1492 1494 1496 1498 1499 1500 1501 1502 1502 1503 1502 1502 1501 1500 1497 1496 1495 1493 1491 1488 1486 1483 1480 1477 1474 1470 1467 1464 1462 1459 1456 1452 1449 1446 1443
1465 1468 1472 1475 1478 1480 1483 1485 1487 1489 1491 1493 1494 1495 1496 1497 1498 1498 1497 1497 1496 1495 1493 1491 1490 1488 1486 1483 1480 1478 1475 1471 1468 1465 1462 1459 1456 1453 1450 1447 1443 1440 1437
1459 1463 1466 1469 1472 1475 1477 1480 1482 1484 1486 1487 1489 1490 1491 1492 1492 1493 1492 1492 1491 1490 1489 1486 1484 1483 1480 1478 1475 1472 1469 1466 1463 1460 1457 1453 1450 1447 1444 1441 1438 1434 1431
1454 1458 1461 1464 1466 1469 1472 1474 1477 1479 1481 1483 1484 1485 1486 1487 1487 1487 1487 1487 1486 1486 1484 1482 1479 1478 1475 1473 1470 1467 1464 1461 1458 1455 1451 1448 1445 1442 1438 1435 1432 1429 1426
1448 1452 1455 1458 1461 1464 1467 1470 1472 1474 1476 1478 1479 1480 1481 1482 1482 1482 1482 1482 1481 1480 1479 1477 1474 1472 1470 1468 1465 1461 1458 1456 1453 1450 1447 1443 1440 1437 1433 1430 1427 1424 1420
1443 1447 1450 1453 1456 1459 1462 1464 1467 1469 1471 1473 1474 1475 1476 1477 1477 1478 1478 1477 1476 1475 1474 1472 1470 1467 1465 1462 1460 1457 1453 1450 1447 1444 1441 1438 1435 1431 1428 1425 1421 1418 1415
1437 1441 1445 1448 1451 1454 1457 1460 1462 1465 1466 1468 1469 1470 1472 1473 1473 1473 1473 1473 1472 1471 1469 1467 1465 1462 1460 1458 1456 1453 1449 1445 1441 1440 1436 1433 1430 1426 1423 1420 1417 1413 1410
1432 1436 1439 1443 1445 1449 1452 1455 1458 1460 1461 1463 1464 1466 1467 1468 1468 1469 1468 1468 1467 1466 1465 1463 1460 1458 1456 1454 1451 1448 1445 1442 1439 1435 1431 1427 1425 1421 1419 1415 1412 1409 1406
1427 1431 1434 1438 1441 1444 1448 1451 1453 1455 1456 1458 1460 1461 1462 1463 1464 1464 1464 1463 1462 1461 1460 1458 1456 1454 1452 1450 1448 1445 1442 1438 1435 1432 1428 1423 1419 1417 1414 1411 1408 1405 1401
1421 1426 1430 1433 1436 1440 1443 1446 1448 1450 1452 1453 1455 1456 1457 1458 1459 1459 1459 1458 1457 1457 1456 1454 1452 1450 1448 1446 1444 1441 1437 1434 1429 1427 1424 1420 1416 1411 1408 1406 1404 1401 1397
1417 1421 1425 1429 1432 1435 1438 1441 1444 1445 1447 1449 1451 1452 1453 1454 1454 1454 1454 1453 1452 1452 1451 1449 1448 1446 1444 1442 1440 1437 1433 1430 1426 1423 1420 1417 1413 1409 1404 1401 1400 1397 1394